TIME,DELAY(SENSOR),PRES,T(CTD),SAL,OXYGEN,RAWTEMP,T(OPTODE),TCPHASE,FLUOR,BETA(BETA700),BETA(BETA412),BETA(BETA440),CDOM,C(CSC),ED(ED411.90),ED(ED443.80),ED(ED489.40),ED(ED554.70),LU(LU412.20),LU(LU443.80),LU(LU489.40),LU(LU555.00),COMP,TILTX,TILTX(TILTY),CHECK
1370447819,5805,496.9899902343750000,16.8948001861572270,36.3413009643554700,212.9944000244140600,191.8516998291015600,16.8939609527587900,32.3634109497070300,50,101,96,81,67,10141,2146959753,2147517275,2147269366,2147463606,2147082459,2146950866,2147657069,2147115382,1594,-2,8,61740
1370447934,5805,486.2000122070312500,17.0445003509521500,36.3699989318847660,215.8034973144531200,187.0305023193359400,17.0393199920654300,32.1442604064941400,50,100,95,80,68,10142,2146956836,2147516333,2147265974,2147459684,2147080502,2146955154,2147655588,2147123602,532,-1,8,31144
1370448051,5806,475.0700073242187500,17.1487007141113280,36.3913002014160160,216.8988037109375000,183.4190063476562500,17.1482200622558600,32.0352897644043000,51,101,95,80,67,10142,2146956196,2147513408,2147271881,2147459812,2147080182,2146959597,2147654089,2147123382,693,-1,8,21004
1370448166,5805,463.8999938964844000,17.2576007843017580,36.4121017456054700,218.8018035888672000,179.9010925292968800,17.2543201446533200,31.8856506347656250,50,100,94,82,67,10137,2146957942,2147514258,2147268333,2147459556,2147081435,2146951972,2147656274,2147127442,951,-1,8,17851
1370448281,5807,452.6700134277344000,17.3570003509521500,36.4282989501953100,220.2669067382812500,176.6036987304687500,17.3537807464599600,31.7635002136230470,51,100,94,80,67,10139,2146958381,2147511030,2147270107,2147458029,2147079890,2146958061,2147654912,2147125138,580,-1,8,9355
1370448386,5805,442.4800109863281000,17.4279994964599600,36.4425010681152340,221.2073059082031200,174.2985992431640600,17.4233093261718750,31.6828804016113280,50,100,95,80,68,10141,2146959798,2147513216,2147267008,2147459766,2147080731,2146959369,2147653805,2147117970,216,-1,8,5583
1370448501,5804,431.3800048828125000,17.4682998657226560,36.4480018615722660,221.9580993652343800,172.8081970214843800,17.4682807922363280,31.6230697631835940,51,101,95,81,67,10136,2146956242,2147515520,2147267273,2147457920,2147079305,2146959634,2147655296,2147128722,3099,-1,8,61135
1370448616,5805,420.6700134277344000,17.5767993927001950,36.4668998718261700,222.4396972656250000,169.4131011962890600,17.5707206726074220,31.5520896911621100,50,101,95,80,67,10131,2146960704,2147515675,2147267510,2147455314,2147081618,2146956004,2147656502,2147131200,2978,-1,8,17979
1370448745,5805,409.1499938964844000,17.6660995483398440,36.4826011657714840,223.9694976806640600,166.2964019775390600,17.6647701263427730,31.4309806823730470,50,102,96,81,66,10137,2146959113,2147512292,2147267437,2147457563,2147082377,2146958637,2147653604,2147127954,2491,-1,8,30370
1370448872,5802,397.7600097656250000,17.7234001159667970,36.4928016662597660,227.9515075683593800,164.4656066894531200,17.7200298309326170,31.2045593261718750,50,101,96,80,67,10131,2146957485,2147517202,2147264274,2147453467,2147081664,2146962816,2147651218,2147127213,3035,-1,8,36777
1370449001,5804,386.5199890136719000,17.8029003143310550,36.5060997009277340,228.9669952392578000,161.7521057128906200,17.8019409179687500,31.1168594360351560,50,100,95,80,65,10132,2146956278,2147517979,2147266852,2147455186,2147082148,2146961316,2147655945,2147125339,2298,-2,8,34152
1370449128,5804,375.6400146484375000,17.8938007354736330,36.5186996459960940,233.9907073974609400,158.6546936035156200,17.8954505920410160,30.8282108306884770,50,100,94,80,65,10134,2146954441,2147513197,2147266678,2147454144,2147084068,2146961426,2147652470,2147127396,1969,-1,8,34811
1370449255,5805,364.7300109863281000,17.9596004486084000,36.5267982482910160,241.2364959716797000,156.6829071044922000,17.9549903869628900,30.4569892883300780,50,101,95,80,63,10136,2146959561,2147513920,2147265325,2147453952,2147081865,2146960576,2147653760,2147126052,1474,-1,8,41706
1370449384,5805,353.5199890136719000,18.0039005279541000,36.5306015014648440,247.2498931884765600,155.1201019287109400,18.0021896362304700,30.1595897674560550,50,101,95,81,63,10132,2146957366,2147514752,2147267840,2147449929,2147078290,2146958601,2147654601,2147126866,1545,-1,8,21284
1370449511,5804,342.7099914550781000,18.0599994659423830,36.5355987548828100,248.1363983154297000,153.3544006347656200,18.0555095672607420,30.0960102081298830,51,102,95,81,63,10131,2146954011,2147516736,2147268224,2147451136,2147080996,2146958738,2147658834,2147127094,1091,-1,8,25438
1370449640,5807,331.6700134277344000,18.1068000793457030,36.5415000915527340,247.8473968505859400,151.7767944335937500,18.1031608581542970,30.0882205963134770,50,103,97,82,64,10127,2146959241,2147517110,2147265782,2147451547,2147074633,2146963392,2147655122,2147125458,960,-1,8,24572
1370449779,5806,319.8999938964844000,18.1359004974365230,36.5447998046875000,247.1788024902343800,150.8150939941406200,18.1322193145751950,30.1057090759277340,50,103,96,81,64,10128,2146954112,2147515227,2147269101,2147451437,2147081398,2146963538,2147662134,2147126582,603,-1,8,54922
1370449906,5806,309.2099914550781000,18.1905994415283200,36.5491981506347660,245.8468933105468800,149.0507965087890600,18.1855201721191400,30.1428699493408200,50,103,95,82,64,10128,2146958326,2147513984,2147267712,2147451456,2147084882,2146971154,2147666752,2147128155,517,-1,8,35747
1370450035,5807,298.5199890136719000,18.2068996429443360,36.5499992370605500,245.5520019531250000,148.4174041748047000,18.2046508789062500,30.1481494903564450,50,102,96,81,64,10120,2146959616,2147515282,2147262665,2147449152,2147081234,2146964864,2147671268,2147129261,115,-1,8,36604
1370450174,5803,287.5199890136719000,18.2458992004394530,36.5540008544921900,244.4020996093750000,147.1925048828125000,18.2416591644287100,30.1844406127929700,51,103,96,81,65,10124,2146954496,2147515465,2147267922,2147450258,2147078692,2146971602,2147674413,2147128585,3269,-1,8,9293
1370450334,5802,273.8900146484375000,18.2926998138427730,36.5531005859375000,245.7422027587890600,145.6519927978515600,18.2882099151611330,30.1030101776123050,50,105,95,82,64,10118,2146955876,2147516644,2147265892,2147449728,2147079606,2146974125,2147686747,2147133101,3269,-1,8,45769
1370450449,5809,262.7000122070312500,18.3131008148193360,36.5572013854980500,244.9857025146484400,144.9859008789062500,18.3083400726318360,30.1287498474121100,50,104,95,82,64,10124,2146956178,2147515648,2147266688,2147452763,2147076827,2146980626,2147693750,2147130331,2731,-1,8,24969
1370450552,5808,252.4600067138672000,18.3649005889892580,36.5588989257812500,244.4098968505859400,143.3392944335937500,18.3581104278564450,30.1333904266357420,51,103,96,82,64,10121,2146956818,2147516242,2147267547,2147447625,2147071771,2146998802,2147716397,2147133769,2718,-1,8,52152
1370450669,5808,240.6300048828125000,18.3857002258300780,36.5564002990722660,246.5115966796875000,142.6114959716797000,18.3801002502441400,30.0279502868652340,51,103,95,82,64,10121,2146960146,2147519314,2147264429,2147449993,2147078016,2147012178,2147748150,2147135186,2723,-1,8,3169
1370450772,5807,230.1600036621093800,18.3894996643066400,36.5522994995117200,251.9459991455078000,142.3182983398437500,18.3889598846435550,29.7807102203369140,52,104,95,82,63,10122,2146955904,2147520804,2147267108,2147453878,2147078326,2147032996,2147787757,2147135058,2630,-2,8,44804
1370450887,5809,218.7400054931640600,18.4141006469726560,36.5537986755371100,253.2111968994140600,141.7644958496093800,18.4057006835937500,29.7178497314453120,52,105,96,81,63,10120,2146957814,2147517741,2147272182,2147450697,2147086509,2147064109,2147837019,2147135268,1814,-1,8,49934
1370451006,5804,208.2700042724609400,18.4323005676269530,36.5539016723632800,254.0697021484375000,140.8993988037109400,18.4318599700927730,29.6689491271972660,53,105,97,82,63,10113,2146956233,2147521956,2147273974,2147450898,2147092854,2147101970,2147900425,2147142308,1497,-1,8,17668
1370451145,5803,197.9400024414062500,18.4645004272460940,36.5554008483886700,254.4010009765625000,140.0213928222656200,18.4584007263183600,29.6429405212402340,54,104,96,81,62,10114,2146955072,2147518637,2147278701,2147452818,2147101229,2147149705,2147985142,2147146349,1558,-1,8,16324
1370451200,5804,193.8800048828125000,18.4720001220703120,36.5553016662597660,254.5567016601562500,139.7568969726562500,18.4663906097412100,29.6327400207519530,57,106,96,82,63,10111,2146957613,2147521188,2147275492,2147451785,2147097545,2147168667,2148013540,2147150601,1130,-1,8,45921
1370451279,5806,188.4700012207031200,18.4862003326416000,36.5568008422851560,254.1681060791015600,139.2765045166015600,18.4809207916259770,29.6431903839111330,56,104,97,83,63,10113,2146958052,2147522889,2147279862,2147448475,2147101229,2147210066,2148078957,2147149147,787,-1,8,26052
1370451334,5807,185.1699981689453000,18.4929008483886720,36.5573997497558600,253.6472015380859400,138.8936004638672000,18.4924907684326170,29.6610908508300780,57,106,96,81,63,10112,2146959725,2147526198,2147280475,2147449846,2147107675,2147240969,2148127936,2147154112,615,-1,8,64430
1370451401,5805,181.1499938964843800,18.5137996673584000,36.5595016479492200,253.0803070068359400,138.3744964599609400,18.5081901550292970,29.6793098449707030,56,106,96,81,63,10115,2146959561,2147525385,2147279753,2147448832,2147106422,2147263762,2148165796,2147157732,271,-1,8,52513
1370451468,5806,177.1199951171875000,18.5198001861572270,36.5601005554199200,252.8083038330078000,138.1212005615234400,18.5158500671386720,29.6878395080566400,59,104,97,82,63,10113,2146958637,2147526656,2147283126,2147452507,2147113270,2147303780,2148222665,2147158290,3280,-1,9,62841
1370451535,5804,173.1600036621093800,18.5275001525878900,36.5592994689941400,252.7812957763672000,137.8489990234375000,18.5240802764892580,29.6856002807617200,61,107,96,83,63,10112,2146959616,2147523629,2147283492,2147448073,2147115840,2147308562,2148219072,2147160164,3041,-1,8,50471
1370451613,5805,168.9299926757812500,18.5433006286621100,36.5609016418457000,252.1750030517578000,137.3654022216797000,18.5387001037597660,29.7057800292968750,59,105,96,82,64,10112,2146956077,2147531337,2147287771,2147450468,2147135689,2147402468,2148374491,2147167744,2997,-1,8,21883
1370451692,5808,165.6199951171875000,18.5464992523193360,36.5611000061035160,251.7745971679687500,137.1777954101562500,18.5443706512451170,29.7210197448730470,59,106,96,82,63,10109,2146956681,2147529965,2147290048,2147449499,2147141147,2147433325,2148413046,2147171894,2699,-1,9,12461
1370451783,5803,161.9400024414062500,18.5706996917724600,36.5607986450195300,251.6318969726562500,136.5086975097656200,18.5646095275878900,29.7187995910644530,66,107,96,83,62,10107,2146961408,2147535405,2147294290,2147448557,2147158134,2147526262,2148551908,2147178121,2403,-1,9,8352
1370451886,5803,157.8800048828125000,18.5804004669189450,36.5619010925293000,251.5576019287109400,136.1378936767578000,18.5758209228515620,29.7170600891113280,69,108,97,82,65,10104,2146960045,2147534445,2147297664,2147448173,2147180342,2147608228,2148665353,2147186733,2114,-1,9,45154
1370451991,5803,153.6999969482422000,18.6075992584228500,36.5640983581543000,251.1394958496093800,135.2875061035156200,18.6015300750732420,29.7246799468994140,64,109,96,82,62,10105,2146957211,2147534491,2147296173,2147448950,2147180004,2147596443,2148627309,2147188324,1967,-1,8,28624
1370452094,5805,149.8800048828125000,18.6495990753173830,36.5652999877929700,251.4696960449218800,133.8988952636718800,18.6435298919677730,29.6917591094970700,72,110,98,83,63,10101,2146957714,2147534317,2147301851,2147448384,2147203584,2147686262,2148758427,2147193755,1594,-2,9,56651
1370452209,5806,146.1499938964843800,18.6830005645751950,36.5670013427734400,251.4122924804687500,132.7933044433593800,18.6769695281982420,29.6799201965332030,74,115,97,83,63,10095,2146958656,2147540169,2147302793,2147450313,2147213668,2147693522,2148752667,2147195035,1256,-1,8,58488
1370452320,5806,141.7899932861328000,18.6858005523681640,36.5676994323730500,251.4371948242187500,132.6452941894531200,18.6814498901367200,29.6770801544189450,75,113,98,83,63,10090,2146958381,2147547611,2147316763,2147451904,2147268864,2147929481,2149099556,2147214957,880,-1,8,51465
1370452411,5807,137.3500061035156200,18.6916007995605470,36.5670013427734400,251.7279052734375000,132.4873962402343800,18.6862297058105470,29.6618995666503900,75,116,99,83,63,10090,2146963419,2147554998,2147332461,2147447058,2147347529,2148228745,2149540361,2147240914,587,-1,8,6022
1370452490,5805,133.4900054931640600,18.7061996459960940,36.5677986145019500,252.1044006347656200,132.0102996826172000,18.7006607055664060,29.6391906738281250,72,113,98,83,63,10095,2146960576,2147552109,2147331117,2147449974,2147357284,2148258706,2149567497,2147244882,207,-1,8,64454
1370452571,5804,129.5800018310547000,18.7133007049560550,36.5684013366699200,251.6528930664062500,131.6808013916015600,18.7106208801269530,29.6546707153320300,77,114,99,83,63,10090,2146964516,2147555794,2147340251,2147448694,2147397760,2148378048,2149729033,2147254198,3352,-1,8,40315
1370452662,5804,125.2900009155273400,18.7509002685546880,36.5686988830566400,251.4346923828125000,130.5435943603515600,18.7450294494628900,29.6497802734375000,81,118,99,86,63,10084,2146965138,2147562404,2147347062,2147450614,2147468132,2148550555,2149949056,2147272667,3029,-1,8,48752
1370452741,5801,121.6600036621093800,18.7681999206542970,36.5695991516113300,252.0263977050781200,129.9548034667968800,18.7628402709960940,29.6158409118652340,81,117,99,85,63,10084,2146969344,2147563931,2147345389,2147448886,2147493549,2148563529,2149932562,2147269686,2919,-2,8,39608
1370452832,5805,117.4000015258789000,18.8334007263183600,36.5754013061523440,251.2648925781250000,127.9064025878906200,18.8248195648193360,29.6228008270263670,113,120,99,84,64,10064,2146969490,2147582994,2147374134,2147453924,2147689545,2149187209,2150798180,2147330413,2239,-1,8,58066
1370452913,5805,113.6699981689453100,18.8498992919921880,36.5742988586425800,251.2366943359375000,127.2487030029296900,18.8447303771972660,29.6155796051025400,119,126,98,85,62,10060,2146970788,2147594432,2147394532,2147452873,2147818843,2149504265,2151215213,2147365147,1438,-2,8,41496
1370453004,5803,109.4199981689453100,18.8817996978759770,36.5750999450683600,251.2053985595703000,126.1113967895507800,18.8791503906250000,29.6020393371582030,118,123,99,84,63,10055,2146979035,2147610733,2147411958,2147453814,2148020379,2149974509,2151838016,2147419300,1437,-1,9,18208
1370453083,5808,105.5500030517578100,18.9034996032714840,36.5751991271972660,252.4933929443359400,125.4113006591796900,18.9003391265869140,29.5362091064453120,134,119,99,84,63,10042,2146986121,2147622336,2147438829,2147453101,2148214016,2150438720,2152471286,2147473819,1768,-1,9,15179
1370453162,5808,101.7799987792968800,18.9461994171142580,36.5731010437011700,254.8361968994140600,124.0790023803711000,18.9406604766845700,29.4167594909667970,148,124,100,84,64,10041,2146984914,2147625874,2147452233,2147452470,2148349787,2150694409,2152807049,2147516955,1849,-1,9,32701
1370453231,5806,98.7399978637695300,18.9719009399414060,36.5751991271972660,255.7729949951172000,123.2474975585937500,18.9658298492431640,29.3656005859375000,157,125,100,84,64,10023,2146995620,2147643337,2147477814,2147456530,2148535680,2151064521,2153323264,2147568923,1515,-1,8,45628
1370453286,5803,96.4599990844726600,19.0209999084472660,36.5755004882812500,257.8599853515625000,121.7401962280273400,19.0114707946777340,29.2563304901123050,240,558,98,85,63,10013,2146997814,2147657417,2147512256,2147461129,2148809426,2151700845,2154176109,2147653046,1159,-1,9,26086
1370453341,5804,94.2900009155273400,19.1040000915527340,36.5756988525390600,259.5419006347656000,118.9960021972656200,19.0945606231689450,29.1493797302246100,208,129,100,85,65,9985,2147002660,2147666258,2147534500,2147464064,2148961709,2151937344,2154477010,2147704877,1068,-1,9,27853
1370453396,5801,92.3099975585937500,19.1798000335693360,36.5746994018554700,264.1272888183594000,116.6932983398437500,19.1643009185791000,28.9277496337890620,271,143,103,86,66,9961,2147009645,2147677147,2147553993,2147464804,2149168356,2152298358,2154928667,2147762340,1342,-1,9,56629
1370453451,5804,90.5400009155273400,19.2502002716064450,36.5741004943847660,268.0758972167969000,114.1897964477539000,19.2401504516601560,28.7332096099853500,241,152,106,89,64,9901,2147013878,2147706313,2147599936,2147465261,2149474569,2152912384,2155701485,2147851620,1096,-1,9,43944
1370453506,5806,88.8700027465820300,19.2922000885009770,36.5755996704101560,272.7464904785156000,112.8088989257812500,19.2819900512695300,28.5274391174316400,205,145,112,90,63,9878,2147027547,2147736448,2147643757,2147468790,2149847186,2153619510,2156555803,2147938212,796,-1,8,2889
1370453584,5806,85.9899978637695300,19.3899993896484380,36.5769996643066400,278.7856140136719000,109.5342025756836000,19.3812408447265620,28.2484207153320300,192,279,108,91,65,9882,2147049444,2147802944,2147725092,2147476105,2150622902,2155039579,2158142656,2148125942,248,-1,8,54439
1370453639,5805,83.1100006103515600,19.4747009277343750,36.5816993713378900,283.8916015625000000,106.5000000000000000,19.4732208251953120,28.0139808654785160,142,145,107,90,65,9922,2147080923,2147867145,2147816420,2147480420,2151543478,2156662253,2159853120,2148318125,622,-1,8,23995
1370453694,5805,80.1500015258789000,19.5506992340087900,36.5819015502929700,288.2153015136719000,104.3031005859375000,19.5398406982421880,27.8238391876220700,107,250,103,87,65,9974,2147115584,2147963675,2147935707,2147488466,2152925814,2159182189,2162481618,2148605165,800,-1,8,25995
1370453749,5802,77.2300033569336000,19.6294002532959000,36.5797004699707000,291.7742919921875000,101.7949981689453100,19.6159191131591800,27.6606998443603500,102,135,104,88,63,9979,2147154550,2148049645,2148032347,2147499282,2154377280,2161614171,2164787328,2148861440,1011,-2,9,6015
1370453804,5807,74.5199966430664000,19.6601009368896500,36.5778999328613300,294.4767150878906000,100.4578018188476600,19.6564903259277340,27.5454692840576170,91,247,105,86,62,9995,2147195419,2148141467,2148136740,2147507035,2155921874,2164108955,2167061184,2149124406,737,-1,8,30649
1370453859,5808,72.0299987792968800,19.6959991455078120,36.5779991149902340,304.8187866210937500,98.8490371704101600,19.7052993774414060,27.1573295593261720,88,133,102,88,63,9986,2147241874,2148235456,2148233371,2147518838,2157616612,2166785197,2169482194,2149385728,557,-1,9,15344
1370453916,5806,69.6299972534179700,19.7315998077392580,36.5766983032226560,306.1022949218750000,98.0707168579101600,19.7289199829101560,27.1030197143554700,87,132,109,88,63,9988,2147294893,2148351881,2148359451,2147525376,2159634340,2169973641,2172361865,2149720548,733,-1,8,31324
1370453971,5804,67.5699996948242200,19.7717990875244140,36.5756988525390600,315.7786865234375000,96.8037872314453100,19.7673702239990230,26.7576408386230470,89,161,102,88,61,9984,2147348955,2148454454,2148462985,2147535195,2161603693,2172929517,2174901833,2150014637,615,-1,8,4945
1370454026,5806,66.0100021362304700,19.8087997436523440,36.5755004882812500,318.5520019531250000,95.4111862182617200,19.8096408843994140,26.6484107971191400,91,362,105,87,64,9991,2147379428,2148501924,2148485924,2147534820,2162885961,2174640658,2176084598,2150153261,273,-2,8,28660
1370454105,5805,64.5299987792968800,19.8663997650146500,36.5746994018554700,316.0379943847656000,93.6291427612304700,19.8637504577636720,26.7102909088134770,83,143,105,87,61,9976,2147442998,2148623259,2148573202,2147536009,2165619236,2178739584,2179573394,2150519149,2942,-1,9,44182
1370454256,5807,62.2799987792968750,20.1408004760742200,36.5644989013671900,336.4782104492187500,85.0339431762695300,20.1248493194580080,25.9485301971435550,78,140,105,90,61,9962,2147515108,2148734701,2148631689,2147543360,2168227693,2181446674,2180640512,2150639259,3132,-2,9,51753
1370454335,5807,60.0800018310546900,20.2644004821777340,36.5648994445800800,321.0256958007812500,80.7151031494140600,20.2561492919921880,26.3888492584228500,76,152,106,89,60,9946,2147583049,2148825417,2148685028,2147543872,2170735277,2184342427,2182479497,2150888749,2726,-2,9,3563
1370454402,5805,57.8400001525878900,20.4528007507324220,36.5593986511230500,319.1330871582031000,74.2665481567382800,20.4523200988769530,26.3731098175048830,75,142,107,90,60,9956,2147779739,2149212315,2149090651,2147583716,2178412781,2195346432,2192164525,2152053376,1961,-2,9,9565
1370454457,5804,55.8800010681152340,20.7413997650146500,36.5495986938476560,322.8417053222656000,66.1906280517578100,20.6982307434082030,26.1550407409667970,74,142,107,88,61,9954,2147930825,2149495808,2149387556,2147616246,2184082477,2203238628,2198874560,2152886116,1654,-1,9,53358
1370454633,5806,50.3600006103515600,20.8297996520996100,36.5508995056152340,327.3825073242187500,61.8450393676757800,20.8306598663330080,25.9572391510009770,71,139,104,91,62,9927,2148342217,2150168731,2149949760,2147677046,2199243584,2221583826,2212587611,2154862208,1726,-1,9,36755
1370454667,5807,48.9799995422363300,20.9155006408691400,36.5461997985839840,343.6070861816406000,59.7834815979003900,20.8935203552246100,25.4302902221679700,68,138,104,89,59,9922,2148549449,2150533449,2150305974,2147722194,2207315693,2232005046,2221034093,2156053860,1662,-1,9,27890
1370454700,5806,47.7000007629394500,21.0403003692626950,36.5407981872558600,362.7564086914062500,54.7582092285156250,21.0468101501464840,24.8122596740722660,68,141,107,89,57,9923,2148633298,2150647853,2150366848,2147725229,2210826139,2235762432,2223553627,2156547894,1778,-2,9,41357
1370454757,5802,45.9199981689453100,21.1217994689941400,36.5405998229980500,348.1271057128906000,52.4240303039550800,21.1180400848388670,25.2084903717041000,67,138,105,88,60,9935,2148799442,2150892498,2150585563,2147769234,2216982354,2242533056,2228131684,2157240877,1591,-1,9,53662
1370454851,5805,43.4700012207031250,21.1658000946044920,36.5396995544433600,354.5891113281250000,50.6076393127441400,21.1735000610351560,24.9976997375488280,65,150,106,90,61,9931,2149197330,2151520246,2151225243,2147935030,2231766098,2259684397,2240762441,2159234267,1075,-1,8,7744
1370454896,5806,41.4700012207031250,21.2726001739501950,36.5346984863281250,363.6989135742187500,47.0793190002441400,21.2812500000000000,24.6961097717285160,64,142,111,90,63,9931,2149480182,2151941202,2151563172,2147991030,2242820114,2271887286,2249016429,2160590262,739,-1,8,40425
1370454929,5804,39.8100013732910160,21.3533000946044920,36.5396995544433600,376.5560913085937500,44.2664794921875000,21.3672008514404300,24.3084297180175780,62,147,105,90,60,9940,2149794121,2152431643,2152024155,2148110080,2255974125,2287646326,2261303780,2162757001,895,-1,9,61925
1370454974,5802,37.5600013732910160,21.4472999572753900,36.5400009155273440,369.2120971679687500,41.6745300292968750,21.4464302062988280,24.4794502258300780,62,134,106,89,58,9951,2150051702,2152770953,2152236635,2148146825,2265759616,2296364507,2266471003,2164085467,1228,-1,9,58684
1370455019,5805,35.2999992370605500,21.4780006408691400,36.5312995910644500,383.4742126464844000,40.2007904052734400,21.4915008544921880,24.0761299133300780,60,137,106,90,59,9947,2150393993,2153248841,2152578870,2148189110,2281716635,2313693504,2279269842,2166807067,1412,-1,9,46513
1370455052,5801,33.6899986267089840,21.5135002136230470,36.5396003723144500,369.7843017578125000,39.2533988952636700,21.5204696655273440,24.4356708526611330,59,134,106,89,59,9944,2150560749,2153459328,2152626368,2148132187,2288776356,2320299373,2283011474,2167847762,1671,-1,9,23134
1370455097,5807,31.6700000762939450,21.5662994384765620,36.5438995361328100,349.7474060058594000,37.3769302368164060,21.5778694152832030,24.9843196868896500,59,138,105,89,61,9935,2151064027,2154199003,2153245302,2148250221,2309159314,2343073792,2300058971,2171337088,1678,-1,9,42607